Kosmos-2362

operational
NORAD ID: 25593 Int'l Des: 1998-077 Owner: VKSR/IACG Country: RU
MEOCIRCULAR

About Kosmos-2362

Description loading...

Live Position

Loading 3D Globe...

Upcoming Passes

Altitude History

Altitude vs Time

uPlot chart will show altitude changes over time

Two-Line Element Set

1 25593U 98077A 25257.39905377 .00000020 00000-0 00000-0 0 9991
2 25593 64.1501 69.8415 0031353 54.3335 333.6099 2.13102617207784
Epoch: Sep 14, 2025 • Age: 52 hours

Current Status

Altitude 19228.7 km
Velocity 3.94 km/s
Sub-Earth Point -55.96°S, 97.57°E
Launch Date Dec 30, 1998
Age 26.7 years
Type other

Technical Details

Classification Payload
Mass 1300.00 kg
Dry Mass 1200.00 kg
Total Mass 1300.00 kg
Length 4.00 m
Diameter 1.50 m
Span 7.80 m
Shape Cyl + Ant + 2 Pan
Manufacturer POL
Bus Type Uragan
Phase Status In Orbit
Owner/State VKSR/IACG/RU

Large Constellations

Loading constellations...